Flag for Ireland Weather past 2 weeks in Dublin, Ireland

Now
64 °F

Scattered clouds.


Feels Like: 64 °F
Forecast: 50 / 63 °F
Wind: 12 mph from South

Location: Dublin Airport

Current Time: Oct 2, 2014 at 4:32:40 PM

Latest Report: Oct 2, 2014 at 4:00 PM


Visibility: N/A

Pressure: 30.18 "Hg

Humidity: 56%

Dew point: 48 °F

Location of DublinLocation

Historic Weather in Dublin — Graph

°F

Dublin temperature yesterday

Maximum temperature yesterday: 61 °F (at 2:00 PM)
Minimum temperature yesterday: 39 °F (at 10:00 PM)
Average temperature yesterday: 54 °F

Past Weeks' High & Low Weather Summary

 TemperatureHumidityPressure
High66 °F (Sep 27, 2:30 PM)100% (Sep 17, 11:00 PM)30.42 "Hg (Sep 17, 11:00 PM)
Low37 °F (Oct 2, 4:00 AM)52% (Sep 26, 1:30 PM)29.83 "Hg (Sep 18, 6:00 AM)
Average56 °F85%30.11 "Hg
* Reported Sep 17 3:00 PM — Oct 2 3:30 PM, Dublin, Weather by CustomWeather, © 2014

Note: Actual official high and low records may vary slightly from our data, if they occured in-between our weather recording intervals... More about our weather records

Advertising

Dublin weather history for previous 24 hours

 ConditionsComfort  
Time TempWeatherWind HumidityBarometerVisibility
3:30 PM
Oct 2
63 °FScattered clouds.13 mph64%30.21 "HgN/A
3:00 PM63 °FScattered clouds.15 mph56%30.21 "HgN/A
2:30 PM63 °FScattered clouds.16 mph59%30.24 "HgN/A
2:00 PM61 °FScattered clouds.13 mph59%30.24 "HgN/A
1:30 PM61 °FPartly sunny.15 mph59%30.27 "HgN/A
1:00 PM61 °FPartly sunny.12 mph59%30.30 "HgN/A
12:30 PM59 °FPartly sunny.15 mph68%30.30 "HgN/A
12:00 PM59 °FBroken clouds.13 mph68%30.30 "HgN/A
11:30 AM61 °FPartly sunny.16 mph63%30.33 "HgN/A
11:00 AM59 °FScattered clouds.13 mph68%30.33 "HgN/A
10:30 AM57 °FPassing clouds.9 mph72%30.33 "HgN/A
10:00 AM55 °FPassing clouds.6 mph72%30.36 "HgN/A
9:30 AM52 °FPassing clouds.5 mph82%30.36 "HgN/A
9:00 AM46 °FPartly sunny.5 mph93%30.36 "HgN/A
8:30 AM43 °FPartly sunny.3 mph100%30.36 "HgN/A
8:00 AM41 °FPassing clouds.6 mph93%30.36 "HgN/A
7:30 AM41 °FPassing clouds.5 mph93%30.36 "HgN/A
7:00 AM37 °FPassing clouds.3 mph93%30.39 "HgN/A
6:30 AM37 °FPassing clouds.3 mph93%30.39 "HgN/A
6:00 AM37 °FPassing clouds.3 mph100%30.39 "HgN/A
5:30 AM37 °FPassing clouds.3 mph93%30.39 "HgN/A
5:00 AM37 °FPassing clouds.3 mph93%30.39 "HgN/A
4:30 AM39 °FPassing clouds.5 mph93%30.39 "HgN/A
4:00 AM37 °FPassing clouds.3 mph93%30.39 "HgN/A
3:30 AM39 °FPassing clouds.3 mph93%30.39 "HgN/A
3:00 AM39 °FPassing clouds.6 mph93%30.42 "HgN/A
2:30 AM41 °FPassing clouds.7 mph87%30.42 "HgN/A
2:00 AM45 °FPassing clouds.6 mph81%30.42 "HgN/A
1:30 AM46 °FPassing clouds.7 mph82%30.42 "HgN/A
1:00 AM45 °FPassing clouds.7 mph87%30.42 "HgN/A
12:30 AM45 °FPassing clouds.9 mph87%30.42 "HgN/A
12:00 AM45 °FPassing clouds.7 mph81%30.42 "HgN/A
11:30 PM
Oct 1
45 °FPassing clouds.7 mph81%30.42 "HgN/A
11:00 PM46 °FPassing clouds.7 mph82%30.42 "HgN/A
10:30 PM46 °FPassing clouds.7 mph82%30.39 "HgN/A
10:00 PM39 °FPassing clouds.3 mph93%30.39 "HgN/A
9:30 PM41 °FPassing clouds.5 mph87%30.39 "HgN/A
9:00 PM43 °FPassing clouds.6 mph81%30.39 "HgN/A
8:30 PM43 °FPassing clouds.5 mph87%30.39 "HgN/A
8:00 PM45 °FPassing clouds.6 mph81%30.39 "HgN/A
7:30 PM48 °FPassing clouds.6 mph71%30.36 "HgN/A
7:00 PM52 °FPassing clouds.6 mph67%30.36 "HgN/A
6:30 PM54 °FPassing clouds.7 mph63%30.36 "HgN/A
6:00 PM57 °FPassing clouds.9 mph59%30.33 "HgN/A
5:30 PM57 °FPassing clouds.12 mph59%30.33 "HgN/A
5:00 PM59 °FPassing clouds.13 mph55%30.33 "HgN/A
4:30 PM59 °FScattered clouds.10 mph55%30.30 "HgN/A
4:00 PM57 °FScattered clouds.12 mph63%30.30 "HgN/A
Weather by CustomWeather, © 2014

See weather overviewHow to use our weather pages